This demonstration page uses our WeatherBlox Daily Observations layout. Learn more.

Left ArrowRight Arrow

Hourly Observations for September 17, 2015

Temp ( °F °C ) Dew Point ( °F °C ) Humidity (%) Winds ( mph kmh ) Pressure ( in mb ) Visibility ( mi km ) Precip ( " mm )
12:51 am 00:51 Clear 76 24.4 54 12.2 47 47 NNE 5 7 29.82 1010 10 16.0934 0 0
1:51 am 01:51 Clear 74 23.3 54 12.2 50 50 NW 5 7 29.82 1010 10 16.0934 0 0
2:51 am 02:51 Clear 71 21.7 54 12.2 55 55 SSE 5 7 29.82 1010 10 16.0934 0 0
3:51 am 03:51 Mostly Cloudy 72 22.2 54 12.2 53 53 Calm 29.81 1010 10 16.0934 0 0
4:51 am 04:51 Mostly Cloudy 69 20.6 53 11.7 57 57 NE 3 6 29.83 1010 10 16.0934 0 0
5:51 am 05:51 Clear 67 19.4 53 11.7 61 61 Calm 29.85 1011 10 16.0934 0 0
6:51 am 06:51 Mostly Sunny 70 21.1 54 12.2 57 57 Calm 29.87 1012 10 16.0934 0 0
7:51 am 07:51 Sunny 76 24.4 55 12.8 48 48 Calm 29.87 1012 10 16.0934 0 0
8:51 am 08:51 Sunny 79 26.1 55 12.8 44 44 SSW 3 6 29.88 1012 10 16.0934 0 0
9:51 am 09:51 Sunny 83 28.3 54 12.2 37 37 VRB 3 6 29.87 1012 10 16.0934 0 0
10:51 am 10:51 Sunny 87 30.6 55 12.8 34 34 N 5 7 29.85 1011 10 16.0934 0 0
11:51 am 11:51 Sunny 89 31.7 55 12.8 31 31 E 5 7 29.83 1010 10 16.0934 0 0
12:51 pm 12:51 Sunny 93 33.9 54 12.2 27 27 W 8 13 29.79 1009 10 16.0934 0 0
1:51 pm 13:51 Partly Cloudy 92 33.3 54 12.2 28 28 NW 7 11 29.77 1008 10 16.0934 0 0
2:51 pm 14:51 Sunny 94 34.4 54 12.2 26 26 undefined N/A 29.75 1007 10 16.0934 0 0
3:51 pm 15:51 Sunny 94 34.4 53 11.7 25 25 W 13 20 29.72 1007 10 16.0934 0 0
4:51 pm 16:51 Sunny 94 34.4 52 11.1 24 24 W 8 13 29.72 1006 10 16.0934 0 0
5:51 pm 17:51 Sunny 92 33.3 51 10.6 25 25 WNW 13 20 29.72 1006 10 16.0934 0 0
6:51 pm 18:51 Clear 89 31.7 49 9.4 25 25 NW 12 19 29.72 1007 10 16.0934 0 0
7:51 pm 19:51 Clear 86 30 49 9.4 28 28 NW 10 17 29.74 1007 10 16.0934 0 0
8:51 pm 20:51 Clear 84 28.9 50 10 31 31 NW 9 15 29.76 1008 10 16.0934 0 0
9:51 pm 21:51 Mostly Clear 81 27.2 51 10.6 35 35 WNW 8 13 29.77 1008 10 16.0934 0 0
10:51 pm 22:51 Clear 79 26.1 51 10.6 38 38 NW 7 11 29.77 1008 10 16.0934 0 0
11:51 pm 23:51 Clear 79 26.1 51 10.6 38 38 WNW 9 15 29.76 1008 10 16.0934 0 0

Powered by AerisWeather